Welcome to the New NWS' Forecast!
Most changes are behind the scenes, but click here for differences you might notice.

Regional Weather Roundup (RWR)

Issued by Green Bay, WI (GRB)

                            
430 
ASUS43 KGRB 201301
RWRGRB

NORTH-CENTRAL AND NORTHEAST WISCONSIN REGIONAL WEATHER ROUNDUP
NATIONAL WEATHER SERVICE GREEN BAY WI
800 AM CDT MON AUG 20 2018

WIZ005-009-010>012-018-019-201400-
NORTH CENTRAL WISCONSIN
  
CITY           SKY/WX    TMP DP  RH WIND       PRES   REMARKS
IRONWOOD       FAIR      65  62  90 CALM      30.02R                  
MANITOWISH WTR NOT AVBL                                               
ARBOR VITAE    NOT AVBL                                               
EAGLE RIVER    PTSUNNY   61  61 100 CALM      30.03S FOG              
LAND O LAKES   PTSUNNY   60  60 100 CALM      30.05S FOG              
RHINELANDER    FAIR      63  61  93 CALM      30.03S FOG              
PHILLIPS       FAIR      61  61 100 CALM      30.01R                  
ANTIGO         PTSUNNY   63  63 100 E3        30.02S FOG              
TOMAHAWK       FAIR      58  57  97 CALM      30.02S FOG              
MERRILL        FAIR      60  60 100 NE3       30.00F FOG              
$$

WIZ013-073-201400-
NORTHEAST WISCONSIN
  
CITY           SKY/WX    TMP DP  RH WIND       PRES   REMARKS
IRON MOUNTAIN  FOG       63  63 100 CALM      30.01R VSB 1/4          
MARINETTE      FAIR      67  66  97 CALM      30.00R FOG              
$$

WIZ017-030-035>037-045-201400-
CENTRAL WISCONSIN
  
CITY           SKY/WX    TMP DP  RH WIND       PRES   REMARKS
MEDFORD        FAIR      61  59  95 NE3       29.99S FOG              
WAUSAU         FAIR      65  63  93 E7        29.98S FOG              
MOSINEE        PTSUNNY   64  64 100 E6        30.00S FOG              
MARSHFIELD     PTSUNNY   65  64  97 NE7       29.97S FOG              
WISC RAPIDS    FAIR      68  62  81 E7        29.97F                  
STEVENS POINT  NOT AVBL                                               
WAUPACA        FAIR      66  66  99 NE3       29.98S FOG              
SHAWANO        PTSUNNY   68  66  94 CALM      30.00R                  
CLINTONVILLE   CLOUDY    64  62  93 NE3       29.99S FOG              
WAUTOMA        CLOUDY    67  64  90 NE7       29.96F                  
$$

WIZ038-039-048-051-201400-
FOX VALLEY
  
CITY           SKY/WX    TMP DP  RH WIND       PRES   REMARKS
NWS GREEN BAY  PTSUNNY   70  66  87 E6        29.98S                  
APPLETON       PTSUNNY   70  61  73 E6        29.97S                  
OSHKOSH        FAIR      71  67  87 E8        29.96S                  
FOND DU LAC    PTSUNNY   71  65  81 NE5       29.96S                  
$$

WIZ022-050-052-201400-
EAST CENTRAL WISCONSIN
  
CITY           SKY/WX    TMP DP  RH WIND       PRES   REMARKS
EPHRAIM        NOT AVBL                                               
WASHINGTON ISL NOT AVBL                                               
STURGEON BAY   FAIR      68  66  93 E3        30.00S                  
MANITOWOC      FAIR      68  65  90 CALM      29.99S                  
SHEBOYGAN      FAIR      71  67  87 NE5       29.97S                  
$$

LMZ563-521-522-541>543-201400-
LAKESHORE
  
STATION/POSITION TIME  TEMP    WIND        PRES    VSBY  WAVE
                       AIR SEA DIR/SP/G                  HT/PER
                 (UTC) (F)     (DEG/KT/KT) (MB)    (MI)  (FT/S)
SHEBOYGAN LKSHOR 1200   73     110/ 13/ 14 1014.2R
KEWAUNEE LKSHORE 1224   72     100/  7/  9 1014.5
NORTHPORT PIER   1240   69      CALM  /  1 1015.6S
N MID LAKE BUOY  1240   72 73  270/  4/  4 1015.4R
SISTER BAY LKSHO 1222   68        CALM       N/A
CHAMBERS ISLAND  1240   68     130/  3/  4 1015.9R
MENOMINEE LKSHOR 1224   71     130/  2/  4 1015.3
$$